Search for airport 
image banner adimage banner adimage banner ad
image banner ad

KTPH - Tonopah

Located in Tonopah, United States

ICAO - TPH, IATA -

Data provided by Airmate  

General information

Coordinates: N38°3'37" W117°5'13"
Elevation is 5430 feet MSL.
Magnetic variation is 15° East
View others Airports in Nevada

Operational data

Special qualification required
Current time UTC:
Current local time:
Weather
METAR: KTPH 130256Z AUTO 19010KT 10SM CLR 29/M11 A3001 RMK AO2 SLP078 T02891106 55000
TAF: KTPH 122320Z 1300/1324 17011KT P6SM SKC FM130800 02007KT P6SM SKC FM131700 19015G25KT P6SM SKC
View NOTAMs / SUP AIP / TFR affecting this airport [VIEW]
Communications frequencies: [VIEW]

Runways:

RWY identifierQFULength (ft)Width (ft)SurfaceLDA (ft)
11125°619550ASPH
29305°619550ASPH
15165°715880ASPH
33345°715880ASPH

Airport contact information

Address: Tonopah United States

Satellite view of KTPH